When you browse on this site, cookies collect data to enhance your experience and personalize the content and advertising you see.
Visit our Privacy Policy to learn more. By continuing to use the site, you agree to this use of cookies and data.
  • In Hungary
  • List of Countries
  • For 7 days
  • Water Temperature
  • Weather Map
  • News
  • Weather Widgets
  • user-avatar
    Login

    Hourly Weather Tvereckiy

    Today, 20 September, Friday

    Time Temperature Precipitation Wind Pressure Humidity
    00:00 +4°C° 0 mm 1 mps 745 mmHg 92%
    01:00 +4°C° 0 mm 1 mps 745 mmHg 93%
    02:00 +4°C° 0 mm 1 mps 746 mmHg 93%
    03:00 +3°C° 0 mm 1 mps 745 mmHg 94%
    04:00 +3°C° 0 mm 1 mps 745 mmHg 95%
    05:00 +2°C° 0 mm 1 mps 745 mmHg 96%
    06:00 +3°C° 0 mm 1 mps 745 mmHg 91%
    07:00 +5°C° 0 mm 1 mps 745 mmHg 87%
    08:00 +6°C° 0 mm 1 mps 745 mmHg 83%
    09:00 +7°C° 0 mm 1 mps 745 mmHg 76%
    10:00 +8°C° 0 mm 1 mps 745 mmHg 68%
    11:00 +9°C° 0 mm 2 mps 745 mmHg 61%
    12:00 +9°C° 0.1 mm 2 mps 745 mmHg 61%
    13:00 +9°C° 0.1 mm 2 mps 745 mmHg 62%
    14:00 +9°C° 0.1 mm 2 mps 745 mmHg 62%
    15:00 +8°C° 0.2 mm 2 mps 745 mmHg 70%
    16:00 +7°C° 0.2 mm 2 mps 745 mmHg 77%
    17:00 +6°C° 0.2 mm 2 mps 745 mmHg 85%
    18:00 +5°C° 0 mm 2 mps 745 mmHg 89%
    19:00 +4°C° 0 mm 2 mps 745 mmHg 92%
    20:00 +2°C° 0 mm 2 mps 746 mmHg 96%
    21:00 +2°C° 0 mm 2 mps 746 mmHg 96%
    22:00 +2°C° 0 mm 2 mps 746 mmHg 96%
    23:00 +1°C° 0 mm 2 mps 746 mmHg 97%

    Tomorrow, 21 September, Saturday

    Time Temperature Precipitation Wind Pressure Humidity
    00:00 +1°C° 0 mm 2 mps 746 mmHg 96%
    01:00 +1°C° 0 mm 2 mps 746 mmHg 96%
    02:00 -1°C° 0 mm 2 mps 746 mmHg 95%
    03:00 -1°C° 0 mm 2 mps 746 mmHg 95%
    04:00 -1°C° 0 mm 2 mps 746 mmHg 95%
    05:00 -1°C° 0 mm 2 mps 746 mmHg 95%
    06:00 +1°C° 0 mm 2 mps 746 mmHg 91%
    07:00 +3°C° 0 mm 2 mps 746 mmHg 86%
    08:00 +4°C° 0 mm 2 mps 746 mmHg 82%
    09:00 +5°C° 0 mm 2 mps 745 mmHg 77%
    10:00 +6°C° 0 mm 2 mps 745 mmHg 73%
    11:00 +7°C° 0 mm 2 mps 745 mmHg 69%
    12:00 +8°C° 0.1 mm 3 mps 744 mmHg 68%
    13:00 +8°C° 0.1 mm 3 mps 744 mmHg 68%
    14:00 +9°C° 0.1 mm 3 mps 744 mmHg 68%
    15:00 +8°C° 0.2 mm 3 mps 743 mmHg 75%
    16:00 +7°C° 0.2 mm 3 mps 743 mmHg 81%
    17:00 +5°C° 0.2 mm 3 mps 742 mmHg 88%
    18:00 +5°C° 0.1 mm 2 mps 742 mmHg 91%
    19:00 +5°C° 0.1 mm 2 mps 742 mmHg 94%
    20:00 +5°C° 0.1 mm 1 mps 742 mmHg 96%
    21:00 +5°C° 0.2 mm 1 mps 741 mmHg 97%
    22:00 +6°C° 0.2 mm 1 mps 741 mmHg 97%
    23:00 +6°C° 0.2 mm 1 mps 740 mmHg 97%

    Day after tomorrow, 22 September, Sunday

    Time Temperature Precipitation Wind Pressure Humidity
    00:00 +6°C° 0.4 mm 1 mps 740 mmHg 97%
    01:00 +6°C° 0.4 mm 1 mps 739 mmHg 97%
    02:00 +6°C° 0.4 mm 1 mps 739 mmHg 98%
    03:00 +6°C° 0.1 mm 1 mps 739 mmHg 98%
    04:00 +6°C° 0.1 mm 1 mps 738 mmHg 97%
    05:00 +6°C° 0.1 mm 1 mps 738 mmHg 97%
    06:00 +5°C° 0.2 mm 2 mps 737 mmHg 97%
    07:00 +5°C° 0.2 mm 2 mps 737 mmHg 96%
    08:00 +5°C° 0.2 mm 2 mps 737 mmHg 95%
    09:00 +4°C° 0.4 mm 3 mps 737 mmHg 93%
    10:00 +4°C° 0.4 mm 4 mps 737 mmHg 91%
    11:00 +3°C° 0.4 mm 6 mps 737 mmHg 89%
    12:00 +3°C° 0.2 mm 5 mps 738 mmHg 88%
    13:00 +3°C° 0.2 mm 5 mps 738 mmHg 87%
    14:00 +3°C° 0.2 mm 5 mps 739 mmHg 86%
    15:00 +2°C° 0.1 mm 5 mps 739 mmHg 85%
    16:00 +3°C° 0.1 mm 4 mps 740 mmHg 83%
    17:00 +3°C° 0.1 mm 4 mps 740 mmHg 81%
    18:00 +1°C° 0 mm 4 mps 741 mmHg 83%
    19:00 +1°C° 0 mm 4 mps 742 mmHg 86%
    20:00 0°C° 0 mm 4 mps 742 mmHg 88%
    21:00 0°C° 0 mm 4 mps 743 mmHg 89%
    22:00 0°C° 0 mm 4 mps 743 mmHg 89%
    23:00 -1°C° 0 mm 4 mps 744 mmHg 90%

    23 September, Monday

    Time Temperature Precipitation Wind Pressure Humidity
    00:00 -1°C° 0 mm 4 mps 745 mmHg 90%
    01:00 -1°C° 0 mm 4 mps 745 mmHg 90%
    02:00 -1°C° 0 mm 4 mps 746 mmHg 90%
    03:00 -1°C° 0 mm 4 mps 746 mmHg 91%
    04:00 -1°C° 0 mm 3 mps 746 mmHg 93%
    05:00 -1°C° 0 mm 3 mps 747 mmHg 94%
    06:00 -1°C° 0 mm 4 mps 747 mmHg 92%
    07:00 -1°C° 0 mm 4 mps 747 mmHg 90%
    08:00 0°C° 0 mm 4 mps 747 mmHg 88%
    09:00 +1°C° 0 mm 4 mps 747 mmHg 82%
    10:00 +3°C° 0 mm 4 mps 747 mmHg 77%
    11:00 +4°C° 0 mm 4 mps 747 mmHg 72%
    12:00 +3°C° 0 mm 5 mps 747 mmHg 68%
    13:00 +5°C° 0 mm 5 mps 747 mmHg 63%
    14:00 +5°C° 0 mm 5 mps 747 mmHg 59%
    15:00 +5°C° 0 mm 4 mps 747 mmHg 64%
    16:00 +4°C° 0 mm 3 mps 747 mmHg 68%
    17:00 +5°C° 0 mm 2 mps 747 mmHg 73%
    18:00 +4°C° 0 mm 2 mps 747 mmHg 78%
    19:00 +3°C° 0 mm 2 mps 747 mmHg 82%
    20:00 +2°C° 0 mm 2 mps 747 mmHg 87%
    21:00 +1°C° 0 mm 2 mps 747 mmHg 90%
    22:00 +1°C° 0 mm 2 mps 747 mmHg 92%
    23:00 -1°C° 0 mm 2 mps 748 mmHg 95%

    24 September, Tuesday

    Time Temperature Precipitation Wind Pressure Humidity
    00:00 -1°C° 0 mm 2 mps 748 mmHg 95%
    01:00 -2°C° 0 mm 2 mps 748 mmHg 96%
    02:00 -2°C° 0 mm 2 mps 748 mmHg 96%
    03:00 0°C° 0 mm 1 mps 748 mmHg 96%
    04:00 0°C° 0 mm 1 mps 748 mmHg 96%
    05:00 0°C° 0 mm 1 mps 748 mmHg 97%
    06:00 +1°C° 0 mm 1 mps 749 mmHg 93%
    07:00 +1°C° 0 mm 2 mps 749 mmHg 89%
    08:00 +2°C° 0 mm 2 mps 749 mmHg 85%
    09:00 +3°C° 0 mm 2 mps 749 mmHg 79%
    10:00 +4°C° 0 mm 2 mps 749 mmHg 73%
    11:00 +5°C° 0 mm 2 mps 749 mmHg 67%
    12:00 +5°C° 0 mm 2 mps 749 mmHg 66%
    13:00 +6°C° 0 mm 2 mps 749 mmHg 64%
    14:00 +6°C° 0 mm 2 mps 749 mmHg 63%
    15:00 +6°C° 0 mm 1 mps 749 mmHg 66%
    16:00 +6°C° 0 mm 1 mps 749 mmHg 69%
    17:00 +5°C° 0 mm 1 mps 749 mmHg 72%
    18:00 +4°C° 0 mm 1 mps 749 mmHg 77%
    19:00 +2°C° 0 mm 0 mps 749 mmHg 82%
    20:00 0°C° 0 mm 0 mps 749 mmHg 87%
    21:00 0°C° 0 mm 0 mps 749 mmHg 88%
    22:00 +1°C° 0 mm 1 mps 749 mmHg 89%
    23:00 0°C° 0 mm 1 mps 749 mmHg 89%

    25 September, Wednesday

    Time Temperature Precipitation Wind Pressure Humidity
    00:00 0°C° 0 mm 1 mps 749 mmHg 90%
    01:00 0°C° 0 mm 1 mps 749 mmHg 91%
    02:00 0°C° 0 mm 1 mps 749 mmHg 92%
    03:00 0°C° 0 mm 1 mps 749 mmHg 92%
    04:00 0°C° 0 mm 1 mps 749 mmHg 92%
    05:00 0°C° 0 mm 1 mps 749 mmHg 93%
    06:00 +1°C° 0 mm 1 mps 749 mmHg 86%
    07:00 +3°C° 0 mm 1 mps 749 mmHg 80%
    08:00 +4°C° 0 mm 1 mps 749 mmHg 73%
    09:00 +6°C° 0 mm 1 mps 749 mmHg 67%
    10:00 +7°C° 0 mm 1 mps 749 mmHg 61%
    11:00 +9°C° 0 mm 1 mps 749 mmHg 55%
    12:00 +9°C° 0 mm 1 mps 749 mmHg 56%
    13:00 +9°C° 0 mm 1 mps 749 mmHg 57%
    14:00 +8°C° 0 mm 1 mps 748 mmHg 58%
    15:00 +8°C° 0 mm 1 mps 748 mmHg 63%
    16:00 +7°C° 0 mm 1 mps 748 mmHg 68%
    17:00 +6°C° 0 mm 1 mps 748 mmHg 73%
    18:00 +5°C° 0 mm 1 mps 748 mmHg 76%
    19:00 +4°C° 0 mm 1 mps 748 mmHg 78%
    20:00 +3°C° 0 mm 1 mps 748 mmHg 81%
    21:00 +2°C° 0 mm 1 mps 748 mmHg 83%
    22:00 +2°C° 0 mm 1 mps 748 mmHg 84%
    23:00 +1°C° 0 mm 1 mps 748 mmHg 85%
    Show more